Regional Weather Roundup
Issued by NWS

Home | Current Version | Previous Version | Text Only | Print | Product List | Glossary Off
Versions: 1 2 3 4 5 6 7 8 9 10 11 12 13 14 15 16 17 18 19 20 21 22 23 24 25 26 27 28 29 30 31 32 33 34 35 36 37 38 39 40 41 42 43 44 45 46 47 48 49 50

000
ASUS43 KLOT 190404
RWRIL

ILLINOIS REGIONAL WEATHER ROUNDUP
NATIONAL WEATHER SERVICE CHICAGO/ROMEOVILLE IL
1100 PM CDT WED OCT 18 2017

NOTE: "FAIR" INDICATES FEW OR NO CLOUDS BELOW 12,000 FEET WITH NO
SIGNIFICANT WEATHER AND/OR OBSTRUCTIONS TO VISIBILITY.

* THESE STATIONS ARE NOT UNDER NWS QUALITY CONTROL. THEY ALSO MAY NOT
  REPORT WEATHER SUCH AS PRECIPITATION OR FOG.

ILZ001-002-007-009-015-016-024-190500-
NORTHWEST ILLINOIS

CITY           SKY/WX    TMP DP  RH WIND       PRES   REMARKS
MOLINE         CLEAR     56  42  59 CALM      30.04S
STERLING*      CLEAR     56  44  64 CALM        N/A
SAVANNA*       CLEAR     52  45  75 S6        30.03S
$$

ILZ003-004-008-010-011-017-018-190500-
NORTH CENTRAL ILLINOIS

CITY           SKY/WX    TMP DP  RH WIND       PRES   REMARKS
ROCKFORD       PTCLDY    55  44  66 S9        30.05S
FREEPORT*      CLEAR     58  44  59 SW13      30.04S
ROCHELLE*      CLEAR     50  45  83 S6        30.06S
DE KALB*       PTCLDY    54  45  72 SW9       30.06F
PERU*          CLEAR     54  43  66 S5        30.08F
$$

ILZ005-006-012>014-019>023-190500-
NORTHEAST ILLINOIS

CITY           SKY/WX    TMP DP  RH WIND       PRES   REMARKS
CHICAGO-OHARE  PTCLDY    63  43  48 SW14      30.05R
CHICAGO-MIDWAY PTCLDY    61  45  55 SW12      30.07R
AURORA         CLEAR     54  45  71 S6        30.07S
LANSING*       CLEAR     56  47  71 SW10      30.09R
JOLIET*        CLEAR     60  46  59 SW6       30.09R
WAUKEGAN       CLEAR     60  44  55 SW14      30.02F
DUPAGE AIRPORT CLEAR     54  46  74 S8        30.06S
KANKAKEE*      CLEAR     57  45  65 SW10      30.10S
WHEELING       CLEAR     64  45  49 SW8G17    30.06S
MORRIS*        CLEAR     51  43  73 S5        30.07S
NORTHERLY ISL    N/A     62  42  47 S5          N/A
$$

LMZ740>746-190500-
SOUTHERN LAKE MICHIGAN

STATION/POSITION SKY/WX   TEMP    WIND        PRES    VSBY  WAVE
                          AIR SEA DIR/SP/G                  HT/PER
                          (F)     (DEG/KT/KT) (MB)    (MI)  (FT/S)
SOUTHERN BUOY              63 61  230/ 19/ 21 1016.3          4/ 5
WILMETTE HARBOR            62 57  200/ 10/ 14   N/A           2/ 4
HARRISON CRIB              65     220/ 25/ 28   N/A
BURNHAM HARBOR             62     210/  5/ 13   N/A
CALUMET HARBOR             62     210/  9/ 14 1017.5R
BURNS HARBOR               61     200/ 15/ 19 1018.6R
MICHIGAN CITY              60     180/ 13/ 15   N/A
MICHIGAN CITY 6N           61 58  210/ 16/ 19   N/A           2/ 3
ST. JOSEPH                 61 58  210/ 14/ 17 1018.6R         3/ 4
$$

ILZ025>027-034>036-040-047-049-050-058-095>099-190500-
WEST-CENTRAL ILLINOIS

CITY           SKY/WX    TMP DP  RH WIND       PRES   REMARKS
QUINCY         CLEAR     58  43  57 S5        30.08R
GALESBURG*     CLEAR     53  45  74 S5        30.08S
MACOMB*        CLEAR     52  44  75 CALM      30.10S
JACKSONVILLE*  CLEAR     59  47  65 S6        30.09R
PITTSFIELD*    CLEAR     57  47  68 S3        30.10R
$$

ILZ028>032-037-038-041>044-048-051>054-059>061-190500-
CENTRAL ILLINOIS

CITY           SKY/WX    TMP DP  RH WIND       PRES   REMARKS
PONTIAC        CLEAR     56  48  73 S8        30.10S
BLOOMINGTON    CLEAR     56  47  71 SW13      30.11R
DECATUR        CLEAR     58  47  66 S10       30.12R
PEORIA         CLEAR     56  46  69 S6        30.09R
LACON*         CLEAR     58  47  69 SW3       30.07S
LINCOLN*       CLEAR     56  48  75 S3        30.10S
SPRINGFIELD    CLEAR     58  48  69 S7        30.10R
TAYLORVILLE    CLEAR     56  47  71 S6        30.12R
$$

ILZ033-039-045-046-055>057-062-063-190500-
EAST-CENTRAL ILLINOIS

CITY           SKY/WX    TMP DP  RH WIND       PRES   REMARKS
CHAMPAIGN      CLEAR     53  45  74 S8        30.13R
DANVILLE*      CLEAR     53  44  73 S7        30.11R
RANTOUL*       CLEAR     52  47  84 S6        30.12R
MATTOON        CLEAR     57  48  72 S9        30.12S
PARIS*         CLEAR     53  47  79 S7        30.14F
$$

ILZ079-100>102-190500-
SOUTHWEST ILLINOIS

CITY           SKY/WX    TMP DP  RH WIND       PRES   REMARKS
ALTON          CLEAR     60  50  67 CALM      30.12R
BELLEVILLE     CLEAR     57  47  69 S5        30.15S
CAHOKIA*       PTCLDY    60  47  61 S3        30.11S
SPARTA*        PTCLDY    61  48  63 S10       30.14F
$$

ILZ064>066-069>071-074>076-080>082-084>086-088>090-092>094-190500-
SOUTH-CENTRAL ILLINOIS

CITY           SKY/WX    TMP DP  RH WIND       PRES   REMARKS
CARBONDALE     PTCLDY    51  48  89 S5        30.16S
EFFINGHAM*     CLEAR     58  47  67 SE6       30.16S
MARION         PTCLDY    57  49  75 SW3       30.17S
MT. VERNON     CLOUDY    56  48  74 S3        30.16S
CENTRALIA*     CLOUDY    60  50  70 S10       30.13F
SALEM*         CLEAR     60  48  63 S7        30.14F
METROPOLIS*    CLEAR     50  48  91 CALM      30.20S
$$

ILZ067-068-072-073-078-083-087-091-190500-
SOUTHEAST ILLINOIS

CITY           SKY/WX    TMP DP  RH WIND       PRES   REMARKS
LAWRENCEVILLE  CLEAR     52  46  80 S5        30.17S
FLORA*         CLEAR     54  47  78 S6        30.16S
FAIRFIELD*     PTCLDY    55  48  77 S5        30.15F
HARRISBURG*    CLEAR     48  46  93 SE5       30.18F
ROBINSON*      CLEAR     50  45  83 S7        30.17S
CARMI*         CLEAR     50  47  88 S7        30.17S
$$

ABBREVIATIONS USED IN REMARKS
   TC - TEMPERATURE IN CELSIUS
  WCI - WIND CHILL INDEX
   HX - HEAT INDEX
  VSB - VISIBILITY
$$




USA.gov is the U.S. government's official web portal to all federal, state and local government web resources and services.